CW3699 Weather Reports


Display with metric or nautical units.
time (UTC)temp
F
wind
direction
speed
MPH
gust
MPH
rain 1hr
in
rain 24hr
in
rain mn
in
humidity
%
barometer
mb
20240224050411 18 3 5.0 7.0 0.00 0.00 0.00 66 1015.7
20240224045910 18 17 5.0 7.0 0.00 0.00 0.00 66 1015.8
20240224045411 18 9 5.0 7.0 0.00 0.00 0.00 65 1015.7
20240224044911 18 20 5.0 8.0 0.00 0.00 0.00 65 1015.7
20240224044411 18 18 5.0 7.0 0.00 0.00 0.00 67 1015.7
20240224043916 18 357 5.0 9.0 0.00 0.00 0.00 68 1015.6
20240224043410 18 19 5.0 8.0 0.00 0.00 0.00 67 1015.6
20240224042410 18 0 5.0 7.0 0.00 0.00 0.00 68 1015.6
20240224041911 18 355 5.0 10.0 0.00 0.00 0.00 68 1015.6
20240224041411 18 3 5.0 7.0 0.00 0.00 0.00 70 1015.4
20240224040912 18 354 5.0 9.0 0.00 0.00 0.00 69 1015.3
20240224040411 18 5 5.0 9.0 0.00 0.00 0.00 69 1015.2
20240224035911 18 4 6.0 9.0 0.00 0.00 0.00 68 1015.2
20240224035412 18 2 5.0 10.0 0.00 0.00 0.00 70 1015.2
20240224034911 18 359 6.0 9.0 0.00 0.00 0.00 71 1015.2
20240224034411 19 3 5.0 9.0 0.00 0.00 0.00 72 1015.2
20240224033411 19 4 6.0 9.0 0.00 0.00 0.00 71 1015.2
20240224032911 19 358 5.0 8.0 0.00 0.00 0.00 71 1015.0
20240224032411 19 1 6.0 12.0 0.00 0.00 0.00 70 1015.0
20240224031911 18 345 5.0 8.0 0.00 0.00 0.00 69 1014.9
20240224031411 18 0 6.0 12.0 0.00 0.00 0.00 68 1014.9
20240224030911 19 354 5.0 13.0 0.00 0.00 0.00 67 1014.8
20240224030411 19 6 6.0 8.0 0.00 0.00 0.00 70 1014.8
20240224024911 19 20 6.0 7.0 0.00 0.00 0.00 71 1014.7
20240224024411 19 359 6.0 9.0 0.00 0.00 0.00 73 1014.7
20240224023911 19 358 6.0 8.0 0.00 0.00 0.00 74 1014.6
20240224023411 19 2 5.0 8.0 0.00 0.00 0.00 73 1014.5
20240224022911 18 357 5.0 8.0 0.00 0.00 0.00 72 1014.4
20240224021411 18 5 5.0 9.0 0.00 0.00 0.00 75 1014.3
20240224020911 18 350 6.0 14.0 0.00 0.00 0.00 75 1014.2
20240224020411 18 5 6.0 8.0 0.00 0.00 0.00 76 1014.2
20240224015411 18 345 6.0 13.0 0.00 0.00 0.00 76 1014.0
20240224014910 18 356 6.0 12.0 0.00 0.00 0.00 77 1013.9
20240224013911 18 352 7.0 13.0 0.00 0.00 0.00 76 1013.8
20240224012910 18 349 7.0 14.0 0.00 0.00 0.00 77 1013.7
20240224011910 18 353 6.0 12.0 0.00 0.00 0.00 76 1013.6
20240224011411 18 352 6.0 8.0 0.00 0.00 0.00 74 1013.6
20240224010411 18 339 6.0 10.0 0.00 0.00 0.00 74 1013.5
20240224005910 18 359 6.0 14.0 0.00 0.00 0.00 75 1013.5
20240224005411 18 345 7.0 10.0 0.00 0.00 0.00 74 1013.5
20240224004912 18 359 5.0 7.0 0.00 0.00 0.00 72 1013.4
20240224004411 18 7 6.0 8.0 0.00 0.00 0.00 71 1013.3
20240224003911 18 354 6.0 10.0 0.00 0.00 0.00 73 1013.3
20240224003411 18 352 6.0 12.0 0.00 0.00 0.00 71 1013.3
20240224002411 18 4 7.0 15.0 0.00 0.00 0.00 72 1013.2
20240224001910 18 1 5.0 9.0 0.00 0.00 0.00 72 1013.1
20240224001410 18 346 5.0 12.0 0.00 0.00 0.00 71 1013.0
20240224000412 18 341 6.0 12.0 0.00 0.00 0.00 70 1012.9
20240223235911 18 3 5.0 10.0 0.00 0.00 0.00 68 1012.8
20240223235411 18 1 5.0 7.0 0.00 0.00 0.00 67 1012.8
20240223234911 18 348 3.0 8.0 0.00 0.00 0.00 65 1012.8
20240223234412 18 3 5.0 8.0 0.00 0.00 0.00 68 1012.7
20240223233410 18 5 5.0 7.0 0.00 0.00 0.00 66 1012.6
20240223232910 18 350 5.0 12.0 0.00 0.00 0.00 67 1012.4
20240223232410 18 347 5.0 12.0 0.00 0.00 0.00 65 1012.4
20240223231911 18 9 5.0 8.0 0.00 0.00 0.00 66 1012.3
20240223231418 18 7 4.0 8.0 0.00 0.00 0.00 65 1012.3
20240223230911 18 354 5.0 8.0 0.00 0.00 0.00 64 1012.2
20240223230411 18 2 5.0 7.0 0.00 0.00 0.00 66 1012.2
20240223225911 18 0 5.0 9.0 0.00 0.00 0.00 67 1012.1
20240223225411 19 344 6.0 13.0 0.00 0.00 0.00 68 1012.0
20240223224912 19 13 5.0 8.0 0.00 0.00 0.00 67 1012.0
20240223224411 19 0 5.0 8.0 0.00 0.00 0.00 66 1011.9
20240223223914 19 342 4.0 7.0 0.00 0.00 0.00 65 1011.8
20240223223411 19 339 5.0 8.0 0.00 0.00 0.00 67 1011.8
20240223222910 19 344 5.0 8.0 0.00 0.00 0.00 66 1011.7
20240223222411 19 0 5.0 6.0 0.00 0.00 0.00 65 1011.5
20240223221910 19 349 5.0 9.0 0.00 0.00 0.00 65 1011.5
20240223220910 19 358 4.0 7.0 0.00 0.00 0.00 65 1011.4
20240223220411 19 353 5.0 8.0 0.00 0.00 0.00 66 1011.4
20240223215911 19 8 5.0 12.0 0.00 0.00 0.00 67 1011.3
20240223215411 19 345 5.0 8.0 0.00 0.00 0.00 65 1011.4
20240223214910 19 12 5.0 12.0 0.00 0.00 0.00 66 1011.3
20240223214410 20 357 6.0 10.0 0.00 0.00 0.00 67 1011.2
20240223213911 20 9 5.0 7.0 0.00 0.00 0.00 67 1011.1
20240223213410 20 349 5.0 9.0 0.00 0.00 0.00 65 1011.0
20240223212911 20 357 5.0 10.0 0.00 0.00 0.00 65 1011.0
20240223212411 20 347 5.0 9.0 0.00 0.00 0.00 66 1011.0
20240223211910 20 0 5.0 9.0 0.00 0.00 0.00 65 1010.9
20240223210911 20 359 4.0 12.0 0.00 0.00 0.00 65 1010.8
20240223210410 20 337 5.0 12.0 0.00 0.00 0.00 65 1010.6
20240223205910 21 358 5.0 12.0 0.00 0.00 0.00 64 1010.6
20240223204410 21 350 5.0 7.0 0.00 0.00 0.00 63 1010.4
20240223203911 21 355 5.0 7.0 0.00 0.00 0.00 65 1010.2
20240223202910 21 23 5.0 9.0 0.00 0.00 0.00 65 1010.1
20240223201410 22 347 5.0 12.0 0.00 0.00 0.00 65 1010.0
20240223200910 22 354 4.0 12.0 0.00 0.00 0.00 64 1009.9
20240223200410 22 14 6.0 12.0 0.00 0.00 0.00 63 1009.8
20240223195411 23 19 5.0 8.0 0.00 0.00 0.00 62 1009.8
20240223194911 23 13 3.0 10.0 0.00 0.00 0.00 62 1009.7
20240223194410 23 352 6.0 12.0 0.00 0.00 0.00 61 1009.7
20240223193911 23 1 5.0 8.0 0.00 0.00 0.00 61 1009.7
20240223193410 23 7 5.0 8.0 0.00 0.00 0.00 62 1009.6
20240223192410 23 13 5.0 7.0 0.00 0.00 0.00 61 1009.5
20240223191911 23 357 5.0 9.0 0.00 0.00 0.00 61 1009.4
20240223191410 23 6 5.0 8.0 0.00 0.00 0.00 60 1009.5
20240223190911 23 18 5.0 7.0 0.00 0.00 0.00 62 1009.5
20240223190410 23 4 6.0 8.0 0.00 0.00 0.00 62 1009.5
20240223185410 23 8 5.0 9.0 0.00 0.00 0.00 60 1009.5
20240223184910 23 350 5.0 12.0 0.00 0.00 0.00 62 1009.5
20240223184411 23 9 5.0 8.0 0.00 0.00 0.00 62 1009.4
20240223183911 23 358 5.0 8.0 0.00 0.00 0.00 60 1009.5
20240223183411 23 4 5.0 8.0 0.00 0.00 0.00 61 1009.5
20240223182410 23 342 6.0 12.0 0.00 0.00 0.00 61 1009.4
20240223181911 23 358 5.0 8.0 0.00 0.00 0.00 60 1009.4
20240223181410 23 10 6.0 9.0 0.00 0.00 0.00 62 1009.3
20240223180910 23 335 5.0 8.0 0.00 0.00 0.00 63 1009.2
20240223180411 23 343 5.0 9.0 0.00 0.00 0.00 63 1009.2
20240223175411 23 7 5.0 8.0 0.00 0.00 0.00 63 1009.1
20240223174910 23 4 6.0 8.0 0.00 0.00 0.00 64 1009.2
20240223174411 24 352 6.0 12.0 0.00 0.00 0.00 64 1009.1
20240223173410 24 10 6.0 12.0 0.00 0.00 0.00 69 1008.9
20240223172910 23 11 7.0 13.0 0.00 0.00 0.00 68 1008.8
20240223172410 23 356 5.0 12.0 0.00 0.00 0.00 68 1008.7
20240223171910 24 354 6.0 15.0 0.00 0.00 0.00 69 1008.7
20240223171410 24 347 6.0 12.0 0.00 0.00 0.00 68 1008.6
20240223170911 24 350 6.0 12.0 0.00 0.00 0.00 70 1008.6
20240223170410 24 356 5.0 12.0 0.00 0.00 0.00 69 1008.6
20240223165910 24 8 6.0 9.0 0.00 0.00 0.00 69 1008.5
20240223164911 25 337 6.0 14.0 0.00 0.00 0.00 72 1008.3
20240223164410 24 4 6.0 12.0 0.00 0.00 0.00 73 1008.3
20240223163911 24 358 6.0 12.0 0.00 0.00 0.00 74 1008.2
20240223163410 24 340 6.0 13.0 0.00 0.00 0.00 74 1008.2
20240223162910 24 352 6.0 13.0 0.00 0.00 0.00 75 1008.0
20240223162410 24 344 7.0 17.0 0.00 0.00 0.00 76 1008.0
20240223161911 24 349 6.0 15.0 0.00 0.00 0.00 76 1008.0
20240223161410 24 347 5.0 10.0 0.00 0.00 0.00 77 1008.0
20240223160910 24 0 6.0 14.0 0.00 0.00 0.00 77 1007.9
20240223160410 24 1 8.0 14.0 0.00 0.00 0.00 76 1008.0
20240223155910 24 358 6.0 13.0 0.00 0.00 0.00 76 1008.0
20240223154410 24 341 8.0 13.0 0.00 0.00 0.00 75 1007.6
20240223153911 23 352 7.0 14.0 0.00 0.00 0.00 77 1007.6
20240223153410 23 343 8.0 15.0 0.00 0.00 0.00 75 1007.5
20240223152910 23 340 6.0 14.0 0.00 0.00 0.00 76 1007.6
20240223152410 23 355 6.0 13.0 0.00 0.01 0.00 75 1007.6
20240223151910 24 350 7.0 14.0 0.00 0.01 0.00 75 1007.5
20240223151410 24 358 7.0 14.0 0.00 0.01 0.00 75 1007.5
20240223150910 23 351 5.0 14.0 0.00 0.01 0.00 76 1007.4
20240223150410 23 352 6.0 14.0 0.00 0.01 0.00 75 1007.3
20240223145910 23 349 6.0 15.0 0.00 0.01 0.00 75 1007.2
20240223145410 24 2 6.0 15.0 0.00 0.01 0.00 76 1007.1
20240223144910 23 357 6.0 12.0 0.00 0.01 0.00 79 1007.1
20240223144410 23 348 6.0 10.0 0.00 0.01 0.00 77 1007.0
20240223143911 23 2 6.0 13.0 0.00 0.01 0.00 78 1006.8
20240223143410 23 345 7.0 14.0 0.00 0.01 0.00 79 1006.8
20240223142910 23 2 6.0 12.0 0.00 0.01 0.00 79 1006.7
20240223142411 23 3 6.0 14.0 0.00 0.01 0.00 81 1006.7
20240223141910 24 357 6.0 10.0 0.00 0.01 0.00 82 1006.6
20240223141410 23 357 6.0 15.0 0.00 0.01 0.00 82 1006.4
20240223140910 23 352 6.0 12.0 0.00 0.01 0.00 83 1006.4
20240223140410 23 349 5.0 13.0 0.00 0.01 0.00 83 1006.2
20240223135911 23 355 5.0 17.0 0.00 0.01 0.00 83 1006.1
20240223135410 24 353 6.0 13.0 0.00 0.01 0.00 84 1006.1
20240223134910 24 358 6.0 12.0 0.00 0.01 0.00 83 1006.0
20240223134410 24 358 6.0 12.0 0.00 0.01 0.00 82 1005.9
20240223133910 24 355 6.0 14.0 0.00 0.01 0.00 82 1005.9
20240223132910 24 3 5.0 10.0 0.00 0.01 0.00 81 1005.7
20240223132411 24 345 5.0 12.0 0.00 0.01 0.00 80 1005.7
20240223131910 25 1 5.0 12.0 0.00 0.01 0.00 78 1005.5
20240223130413 26 9 8.0 14.0 0.00 0.01 0.00 82 1005.0
20240223125910 26 2 6.0 15.0 0.00 0.01 0.00 82 1004.9
20240223125410 26 1 7.0 13.0 0.00 0.01 0.00 82 1004.7
20240223124410 27 354 8.0 18.0 0.00 0.01 0.00 83 1004.5
20240223123911 28 345 7.0 16.0 0.00 0.01 0.00 83 1004.3
20240223123410 28 342 7.0 17.0 0.00 0.01 0.00 82 1004.3
20240223122410 29 358 7.0 15.0 0.00 0.01 0.00 83 1004.0
20240223121410 29 349 7.0 16.0 0.00 0.01 0.00 84 1003.6
20240223120910 30 351 7.0 13.0 0.00 0.01 0.00 85 1003.5
20240223115910 30 8 6.0 12.0 0.00 0.01 0.00 85 1003.2
20240223115410 31 346 6.0 13.0 0.00 0.01 0.00 86 1003.1
20240223114910 31 347 7.0 16.0 0.00 0.01 0.00 87 1003.1
20240223114409 31 342 7.0 12.0 0.00 0.01 0.00 87 1002.7
20240223113910 31 337 6.0 14.0 0.00 0.01 0.00 87 1002.7
20240223112910 31 342 5.0 9.0 0.00 0.01 0.00 88 1002.5
20240223112410 31 338 4.0 8.0 0.00 0.01 0.00 89 1002.5
20240223111910 31 3 4.0 15.0 0.00 0.01 0.00 91 1002.3
20240223111410 31 9 2.0 8.0 0.00 0.01 0.00 92 1002.2
20240223110910 31 309 1.0 2.0 0.00 0.01 0.00 92 1002.2
20240223110410 31 339 1.0 9.0 0.00 0.01 0.00 92 1002.2
20240223105910 31 342 2.0 7.0 0.00 0.01 0.00 93 1002.1
20240223105420 31 332 3.0 9.0 0.00 0.01 0.00 93 1002.1
20240223104411 31 338 2.0 5.0 0.00 0.01 0.00 94 1001.9
20240223103410 31 345 2.0 3.0 0.00 0.01 0.00 94 1001.8
20240223102910 31 335 3.0 9.0 0.00 0.01 0.00 94 1001.8
20240223102410 31 345 1.0 3.0 0.00 0.01 0.00 94 1001.7
20240223101910 31 350 2.0 7.0 0.00 0.01 0.00 94 1001.7
20240223101410 31 334 1.0 3.0 0.00 0.01 0.00 95 1001.6
20240223100910 31 294 2.0 5.0 0.00 0.01 0.00 95 1001.6
20240223095911 31 304 1.0 2.0 0.00 0.01 0.00 95 1001.5
20240223094410 31 330 1.0 3.0 0.00 0.01 0.00 95 1001.3
20240223092913 30 344 1.0 2.0 0.00 0.01 0.00 94 1001.0
20240223092411 30 323 1.0 3.0 0.00 0.01 0.00 94 1001.1
20240223091409 31 148 0.0 3.0 0.00 0.01 0.00 94 1000.9
20240223090910 31 332 1.0 3.0 0.00 0.01 0.00 94 1000.9
20240223090410 31 314 1.0 3.0 0.00 0.01 0.00 94 1000.9
20240223085410 31 354 1.0 7.0 0.00 0.01 0.00 94 1000.7
20240223084910 31 257 1.0 3.0 0.00 0.01 0.00 94 1000.6
20240223083910 31 257 1.0 3.0 0.00 0.01 0.00 94 1000.7
20240223083410 31 306 1.0 3.0 0.00 0.01 0.00 94 1000.6
20240223082910 31 265 1.0 3.0 0.00 0.01 0.00 94 1000.6
20240223082421 31 293 1.0 5.0 0.00 0.01 0.00 94 1000.6
20240223081909 31 262 1.0 5.0 0.00 0.01 0.00 95 1000.5
20240223081412 31 316 1.0 3.0 0.00 0.01 0.00 95 1000.5
20240223080910 31 317 1.0 3.0 0.00 0.01 0.00 94 1000.6
20240223080409 30 307 1.0 3.0 0.00 0.01 0.00 94 1000.5
20240223075911 30 316 1.0 3.0 0.00 0.01 0.00 94 1000.4
20240223075410 30 259 1.0 3.0 0.00 0.01 0.00 94 1000.3
20240223074910 30 325 1.0 3.0 0.00 0.01 0.00 94 1000.3
20240223073910 30 296 1.0 3.0 0.00 0.01 0.00 94 1000.2
20240223073410 30 280 1.0 3.0 0.00 0.01 0.00 94 1000.1
20240223072911 30 189 1.0 3.0 0.00 0.01 0.00 93 1000.0
20240223072410 30 192 1.0 3.0 0.00 0.01 0.00 93 1000.0
20240223071909 30 182 2.0 3.0 0.00 0.01 0.00 93 1000.0
20240223071410 30 203 2.0 3.0 0.00 0.01 0.00 93 999.9
20240223070910 30 192 2.0 3.0 0.00 0.01 0.00 93 999.9
20240223065910 30 182 2.0 3.0 0.00 0.01 0.00 93 999.9
20240223065410 30 170 2.0 3.0 0.00 0.01 0.00 93 999.9
20240223064910 30 186 2.0 3.0 0.00 0.01 0.00 92 999.9
20240223064410 31 185 2.0 3.0 0.00 0.01 0.00 93 1000.0
20240223063910 31 189 2.0 3.0 0.00 0.01 0.00 92 1000.0
20240223063410 31 199 2.0 3.0 0.00 0.01 0.00 92 1000.0
20240223062910 31 207 2.0 3.0 0.00 0.01 0.00 92 1000.1
20240223062410 31 185 2.0 3.0 0.00 0.01 0.00 92 1000.1
20240223061910 31 190 2.0 3.0 0.00 0.01 0.00 92 1000.2
20240223061409 31 188 2.0 3.0 0.00 0.01 0.00 92 1000.2
20240223060910 31 192 2.0 5.0 0.00 0.01 0.00 92 1000.2
20240223060410 31 187 2.0 3.0 0.00 0.01 0.00 91 1000.2
20240223055909 31 199 2.0 3.0 0.00 0.01 0.00 91 1000.3
20240223055410 32 208 2.0 3.0 0.00 0.01 0.00 91 1000.4
20240223054909 32 198 2.0 3.0 0.00 0.01 0.00 91 1000.4
20240223053910 32 190 2.0 3.0 0.00 0.01 0.00 90 1000.4
20240223052909 33 196 2.0 2.0 0.00 0.01 0.00 91 1000.7
20240223051909 33 205 1.0 3.0 0.00 0.01 0.00 91 1000.7
20240223051410 33 215 1.0 3.0 0.00 0.01 0.00 91 1000.8
20240223050910 33 207 1.0 3.0 0.00 0.01 0.00 91 1000.8